When you browse on this site, cookies collect data to enhance your experience and personalize the content and advertising you see.
Visit our Privacy Policy to learn more. By continuing to use the site, you agree to this use of cookies and data.

Hourly Weather Passo Fundo

Today, 25 September, Friday

Time Temperature Precipitation Wind Pressure Humidity
00:00 +16°C° 0 mm 3 mps 708 mmHg 80%
01:00 +16°C° 0 mm 3 mps 707 mmHg 80%
02:00 +14°C° 0 mm 3 mps 707 mmHg 80%
03:00 +14°C° 0 mm 3 mps 707 mmHg 79%
04:00 +14°C° 0 mm 3 mps 707 mmHg 80%
05:00 +14°C° 0 mm 4 mps 707 mmHg 81%
06:00 +13°C° 0 mm 4 mps 707 mmHg 82%
07:00 +15°C° 0 mm 4 mps 708 mmHg 81%
08:00 +18°C° 0 mm 4 mps 708 mmHg 80%
09:00 +19°C° 0 mm 4 mps 708 mmHg 79%
10:00 +21°C° 0 mm 4 mps 708 mmHg 75%
11:00 +24°C° 0 mm 3 mps 708 mmHg 71%
12:00 +26°C° 0 mm 3 mps 707 mmHg 67%
13:00 +27°C° 0 mm 2 mps 707 mmHg 62%
14:00 +27°C° 0 mm 2 mps 706 mmHg 58%
15:00 +28°C° 0 mm 1 mps 706 mmHg 53%
16:00 +27°C° 0 mm 2 mps 705 mmHg 59%
17:00 +25°C° 0 mm 2 mps 705 mmHg 65%
18:00 +23°C° 0 mm 2 mps 704 mmHg 71%
19:00 +21°C° 0 mm 2 mps 705 mmHg 72%
20:00 +20°C° 0 mm 3 mps 705 mmHg 72%
21:00 +19°C° 0 mm 3 mps 705 mmHg 73%
22:00 +19°C° 0 mm 3 mps 705 mmHg 74%
23:00 +19°C° 0 mm 3 mps 704 mmHg 75%

Tomorrow, 26 September, Saturday

Time Temperature Precipitation Wind Pressure Humidity
00:00 +18°C° 0 mm 3 mps 704 mmHg 77%
01:00 +18°C° 0 mm 3 mps 704 mmHg 77%
02:00 +18°C° 0 mm 4 mps 703 mmHg 78%
03:00 +17°C° 0 mm 4 mps 703 mmHg 78%
04:00 +17°C° 0 mm 4 mps 703 mmHg 79%
05:00 +17°C° 0 mm 4 mps 703 mmHg 80%
06:00 +17°C° 0 mm 4 mps 703 mmHg 80%
07:00 +19°C° 0 mm 4 mps 703 mmHg 78%
08:00 +20°C° 0 mm 4 mps 703 mmHg 76%
09:00 +22°C° 0 mm 4 mps 703 mmHg 74%
10:00 +25°C° 0 mm 4 mps 703 mmHg 71%
11:00 +27°C° 0 mm 4 mps 703 mmHg 68%
12:00 +29°C° 0 mm 4 mps 702 mmHg 64%
13:00 +29°C° 0 mm 4 mps 702 mmHg 66%
14:00 +28°C° 0 mm 3 mps 701 mmHg 67%
15:00 +28°C° 0 mm 3 mps 700 mmHg 68%
16:00 +27°C° 0 mm 3 mps 700 mmHg 68%
17:00 +27°C° 0 mm 3 mps 700 mmHg 69%
18:00 +26°C° 0 mm 3 mps 699 mmHg 70%
19:00 +25°C° 0 mm 3 mps 700 mmHg 71%
20:00 +24°C° 0 mm 3 mps 700 mmHg 73%
21:00 +22°C° 0 mm 4 mps 700 mmHg 74%
22:00 +21°C° 0 mm 3 mps 700 mmHg 77%
23:00 +20°C° 0 mm 3 mps 700 mmHg 81%

Day after tomorrow, 27 September, Sunday

Time Temperature Precipitation Wind Pressure Humidity
00:00 +20°C° 0 mm 3 mps 700 mmHg 84%
01:00 +20°C° 0 mm 4 mps 699 mmHg 78%
02:00 +21°C° 0 mm 4 mps 699 mmHg 72%
03:00 +21°C° 0 mm 4 mps 698 mmHg 66%
04:00 +21°C° 0 mm 4 mps 698 mmHg 65%
05:00 +21°C° 0 mm 5 mps 698 mmHg 64%
06:00 +21°C° 0 mm 5 mps 698 mmHg 63%
07:00 +21°C° 0.3 mm 4 mps 699 mmHg 69%
08:00 +22°C° 0.3 mm 4 mps 700 mmHg 74%
09:00 +22°C° 0.3 mm 4 mps 701 mmHg 80%
10:00 +23°C° 0 mm 4 mps 701 mmHg 77%
11:00 +25°C° 0 mm 4 mps 701 mmHg 74%
12:00 +26°C° 0 mm 3 mps 702 mmHg 71%
13:00 +26°C° 0.1 mm 3 mps 701 mmHg 70%
14:00 +27°C° 0.1 mm 3 mps 701 mmHg 70%
15:00 +27°C° 0.1 mm 3 mps 700 mmHg 69%
16:00 +26°C° 0.1 mm 3 mps 700 mmHg 74%
17:00 +25°C° 0.1 mm 3 mps 700 mmHg 79%
18:00 +24°C° 0.1 mm 2 mps 700 mmHg 84%
19:00 +22°C° 0.8 mm 3 mps 701 mmHg 88%
20:00 +21°C° 0.8 mm 4 mps 701 mmHg 93%
21:00 +20°C° 0.8 mm 5 mps 702 mmHg 97%
22:00 +19°C° 0.6 mm 4 mps 702 mmHg 96%
23:00 +18°C° 0.6 mm 4 mps 702 mmHg 95%

28 September, Monday

Time Temperature Precipitation Wind Pressure Humidity
00:00 +15°C° 0.6 mm 4 mps 702 mmHg 94%
01:00 +15°C° 0.3 mm 4 mps 702 mmHg 94%
02:00 +14°C° 0.3 mm 4 mps 702 mmHg 95%
03:00 +13°C° 0.3 mm 3 mps 702 mmHg 95%
04:00 +13°C° 0.2 mm 3 mps 703 mmHg 95%
05:00 +12°C° 0.2 mm 3 mps 703 mmHg 95%
06:00 +11°C° 0.2 mm 3 mps 704 mmHg 95%
07:00 +12°C° 0 mm 3 mps 704 mmHg 92%
08:00 +13°C° 0 mm 3 mps 704 mmHg 89%
09:00 +13°C° 0 mm 3 mps 705 mmHg 87%
10:00 +14°C° 0 mm 3 mps 705 mmHg 80%
11:00 +17°C° 0 mm 3 mps 705 mmHg 73%
12:00 +18°C° 0 mm 3 mps 705 mmHg 66%
13:00 +18°C° 0 mm 3 mps 705 mmHg 65%
14:00 +19°C° 0 mm 3 mps 704 mmHg 64%
15:00 +19°C° 0 mm 3 mps 704 mmHg 63%
16:00 +18°C° 0 mm 2 mps 704 mmHg 68%
17:00 +18°C° 0 mm 2 mps 704 mmHg 72%
18:00 +18°C° 0 mm 1 mps 704 mmHg 77%
19:00 +15°C° 0 mm 1 mps 704 mmHg 80%
20:00 +14°C° 0 mm 2 mps 704 mmHg 83%
21:00 +13°C° 0 mm 2 mps 704 mmHg 86%
22:00 +12°C° 0 mm 2 mps 704 mmHg 85%
23:00 +12°C° 0 mm 2 mps 704 mmHg 84%

29 September, Tuesday

Time Temperature Precipitation Wind Pressure Humidity
00:00 +10°C° 0 mm 3 mps 704 mmHg 83%
01:00 +10°C° 0 mm 3 mps 703 mmHg 82%
02:00 +10°C° 0 mm 3 mps 703 mmHg 82%
03:00 +9°C° 0 mm 3 mps 703 mmHg 81%
04:00 +10°C° 0 mm 3 mps 703 mmHg 82%
05:00 +10°C° 0 mm 3 mps 703 mmHg 83%
06:00 +10°C° 0 mm 3 mps 703 mmHg 84%
07:00 +12°C° 0 mm 3 mps 703 mmHg 82%
08:00 +16°C° 0 mm 3 mps 704 mmHg 81%
09:00 +18°C° 0 mm 4 mps 704 mmHg 79%
10:00 +20°C° 0 mm 3 mps 704 mmHg 73%
11:00 +24°C° 0 mm 3 mps 704 mmHg 67%
12:00 +26°C° 0 mm 2 mps 704 mmHg 61%
13:00 +27°C° 0 mm 2 mps 703 mmHg 59%
14:00 +28°C° 0 mm 2 mps 702 mmHg 58%
15:00 +29°C° 0 mm 2 mps 702 mmHg 56%
16:00 +28°C° 0 mm 1 mps 702 mmHg 60%
17:00 +27°C° 0 mm 1 mps 701 mmHg 65%
18:00 +24°C° 0 mm 0 mps 701 mmHg 70%
19:00 +24°C° 0 mm 1 mps 701 mmHg 74%
20:00 +23°C° 0 mm 2 mps 701 mmHg 78%
21:00 +21°C° 0 mm 3 mps 701 mmHg 82%
22:00 +21°C° 0 mm 4 mps 701 mmHg 83%
23:00 +21°C° 0 mm 4 mps 701 mmHg 83%

30 September, Wednesday

Time Temperature Precipitation Wind Pressure Humidity
00:00 +21°C° 0 mm 5 mps 701 mmHg 83%
01:00 +21°C° 0.1 mm 5 mps 701 mmHg 83%
02:00 +20°C° 0.1 mm 6 mps 700 mmHg 84%
03:00 +20°C° 0.1 mm 6 mps 700 mmHg 84%
04:00 +20°C° 0.3 mm 5 mps 700 mmHg 84%
05:00 +20°C° 0.3 mm 4 mps 700 mmHg 84%
06:00 +20°C° 0.3 mm 3 mps 700 mmHg 85%
07:00 +20°C° 1.8 mm 3 mps 701 mmHg 87%
08:00 +21°C° 1.8 mm 3 mps 701 mmHg 89%
09:00 +21°C° 1.8 mm 3 mps 702 mmHg 92%
10:00 +22°C° 0.1 mm 3 mps 702 mmHg 87%
11:00 +25°C° 0.1 mm 2 mps 702 mmHg 82%
12:00 +26°C° 0.1 mm 2 mps 702 mmHg 77%
13:00 +27°C° 0.1 mm 2 mps 701 mmHg 78%
14:00 +27°C° 0.1 mm 2 mps 701 mmHg 78%
15:00 +27°C° 0.1 mm 3 mps 700 mmHg 78%
16:00 +26°C° 1.9 mm 3 mps 700 mmHg 83%
17:00 +23°C° 1.9 mm 4 mps 700 mmHg 88%
18:00 +22°C° 1.9 mm 4 mps 700 mmHg 93%
19:00 +21°C° 0.2 mm 4 mps 700 mmHg 92%
20:00 +21°C° 0.2 mm 4 mps 700 mmHg 91%
21:00 +21°C° 0.2 mm 4 mps 700 mmHg 90%
22:00 +21°C° 0 mm 4 mps 700 mmHg 90%
23:00 +21°C° 0 mm 5 mps 700 mmHg 90%
Show more